Regional Weather Roundup
Issued by NWS

Home | Current Version | Previous Version | Graphics & Text | Print | Product List | Glossary On
Versions: 1 2 3 4 5 6 7 8 9 10 11 12 13 14 15 16 17 18 19 20 21 22 23 24 25 26 27 28 29 30 31 32 33 34 35 36 37 38 39 40 41 42 43 44 45 46 47 48 49 50
294
ASUS45 KSLC 202310
RWRUT

UTAH REGIONAL WEATHER ROUNDUP
NATIONAL WEATHER SERVICE SALT LAKE CITY UT
400 PM MST MON FEB 20 2017

UTZ001>011-023>025-210000-

NORTHERN UTAH

CITY           SKY/WX    TMP DP  RH WIND       PRES   REMARKS
BRIGHAM CITY     N/A     50  38  64 S3        29.95F
HILL AFB       CLOUDY    51  33  49 S20G26    29.96F
LOGAN          CLOUDY    50  37  61 S6        29.97S
OGDEN          CLOUDY    52  34  50 S16G25    29.96F
SALT LAKE CITY PTSUNNY   55  35  47 S25G36    29.96S
TOOELE VALLEY  CLOUDY    59  37  44 S23G39    29.96F
WENDOVER       MOSUNNY   57  36  44 SW29      29.92S
HEBER CITY     CLOUDY    48  30  49 SW8       30.02S
WEST JORDAN    CLOUDY    56  43  61 SE24G31   29.98S

$$

UTZ011>015-024>027-210000-

CENTRAL/NORTHEAST UTAH

CITY           SKY/WX    TMP DP  RH WIND       PRES   REMARKS
PROVO AIRPORT  CLOUDY    54  33  45 VRB7      30.03F
MOAB/CANYONLAN CLOUDY    56  38  50 SW12      30.13F
DELTA          CLOUDY    54  36  50 S30       30.04F
PRICE          CLOUDY    41  36  82 E3        30.15F
ROOSEVELT      MOSUNNY   48  32  53 SE3       30.14R
VERNAL         CLOUDY    44  36  73 CALM      30.12S

$$

UTZ013>016-019>022-027-210000-

SOUTHERN UTAH

CITY           SKY/WX    TMP DP  RH WIND       PRES   REMARKS
BRYCE CANYON   CLOUDY    36  32  85 SE13      30.22F WCI  27
CEDAR CITY     SUNNY     52  36  54 SW24G32   30.11F
MILFORD        CLOUDY    49  39  68 SW25      30.08F
ST GEORGE      CLOUDY    57  45  64 CALM      30.18S
HANKSVILLE     PTSUNNY   55  36  47 NE5       30.16S
BLANDING       PTSUNNY   49  32  50 S10       30.30S

$$

REGIONAL REPORTS     COLORADO/ARIZONA

CITY           SKY/WX    TMP DP  RH WIND       PRES   REMARKS
CRAIG, CO      CLOUDY    48  29  47 SW12G23   30.13F
GRAND JUNCTION SUNNY     52  40  63 NW13      30.15S
RIFLE, CO      CLOUDY    51  33  50 W5        30.14F
MONTROSE, CO   CLOUDY    55  28  35 VRB5      30.17F
CORTEZ, CO     SUNNY     51  34  52 VRB5      30.23F
COLORADO CITY  CLOUDY    52  41  66 S3        30.24S
PAGE, AZ       CLOUDY    54  34  46 N7        30.19F
GRAND CANYON   CLOUDY    45  38  76 SW10      30.27S
KINGMAN, AZ    MOSUNNY   59  34  39 SW15      30.23S
FLAGSTAFF, AZ  MOSUNNY   48  35  60 W10       30.29R

$$

REGIONAL REPORTS    NEVADA/IDAHO/WYOMING

CITY           SKY/WX    TMP DP  RH WIND       PRES   REMARKS
LAS VEGAS, NV  MOSUNNY   66  45  46 S17G23    30.09S
ELY, NY        MOSUNNY   48  36  63 S17G30    30.01R
ELKO, NV       LGT RAIN  42  36  79 W12       29.95R
POCATELLO, ID  LGT RAIN  44  37  76 S31G39    29.90S
BURLEY, ID     CLOUDY    50  37  61 S22G30    29.86R
FORT BRIDGER,  MOCLDY    41  32  71 E9        30.04S
EVANSTON, WY   CLOUDY    39  28  64 SW16      30.00F WCI  30
ROCK SPRINGS,  CLOUDY    42  30  62 S6        30.03S
KEMMERER, WY     N/A     39  30  70 SW5       30.02S

$$




USA.gov is the U.S. government's official web portal to all federal, state and local government web resources and services.